CZ-3B R/B, 44867

Orbit data source: Space-Track

CZ-3B R/B, 44867 is space debris originally from a launch on Mon, 16 Dec 2019 UTC launched from the Xichang Space Center, China (XSC). Debris objects in space refer to the collection of defunct objects orbiting the Earth. Examples of debris include non-operational satellites, rocket bodies, and fragments generated from explosions, collisions, or faulty payload assembly.

Loading next visibility...
Identifier
44867, 2019-090D
Orbit
Active
Last TLE update
10 hours ago
Origin
Manufacturer
CALT
Mission
Spacecraft
Bus & Motor
CZ-3A STAGE 3, Unknown motor
Mass
~2,800 kg wet, ~2,800 kg dry
Launch date (UTC)
2019-12-16 (6 years ago)
Launch vehicle
Unknown
Launch site
Xichang Space Center, China (XSC)
Object type
Payload
Rocket body
Debris
Shape & HBR
Cyl + 1 Nozzle, 12.38 m
Radar Cross Section
32.704 m², Large (>1 m²)

Expand to show TLE details & history

TLE from 10 hours ago
0 CZ-3B R/B
1 44867U 19090D   25186.53265211  .01514569  67957-6  51985-3 0  9997
2 44867  54.8874 273.7795 3375120 186.9176 167.0180  8.90758503 99248
Epoch: 2025-07-05T12:47Z
TLE epoch observation values (Epoch: 2025-07-05T12:47:01.142Z)
Latitude
0.00001°
Longitude
158.25541°
Altitude
6,722.977 km
Speed
4.507 km/s
True Right ascension
18h 15m 07s
True Declination
0° 00' 00"
Sunlit
Object was in full shadow at epoch
Visualization orbit readout
Latitude
-54.8683°
Longitude
73.48256°
Altitude
2,153.487 km
Speed
7.279 km/s
Apparent Right ascension
17h 34m 34s
Apparent Declination
-77° 04' 01"
Sunlit
Object is in daylight
Visualization observer readout
Local Sidereal Time
10:36:27
Azimuth
163.064° S
Elevation
-41.947°
Doppler factor
1
Orbital elements
Apogee altitude
6,769.84 km
Perigee altitude
134.236 km
Semi-major axis
9,830.175 km
Eccentricity
0.33751
Inclination
54.8874°
RAAN
273.7795°
Arg. of periapsis
186.9176°
True anomaly
Unknown
Mean anomaly
167.018°
Eccentric anomaly
Unknown
Mean motion
2.2269 °/min
Orbital period
161.66 mins
BSTAR
0.00051985
Loading maneuver chart data...
Loading SW <> Apogee altitude chart data...
Loading historical data...
Loading historical data...
Loading historical data...
Loading historical data...
Loading historical data...
Loading historical data...
Loading historical data...
Other satellites on launch #90 in the year 2019 (2019-12-16 UTC)

CZ-3B R/B Visibility forecast

Observer location: undefined°, undefined°

Span
Click to sort rows by Start time (UTC) header in descending order
Start Az.
Max El. time (UTC)
Max El. Az.
Max El.
End time (UTC)
End Az.
57 mins2025-07-06 04:47:14.052Z159.27° S2025-07-06 05:21:14.052Z109.044° ESE29.609°2025-07-06 05:44:14.052Z58.587° ENE
64 mins2025-07-06 07:32:14.052Z211.069° SW2025-07-06 08:15:14.052Z133.218° SE44.843°2025-07-06 08:36:14.052Z48.519° ENE
47 mins2025-07-06 10:37:14.052Z260.966° W2025-07-06 11:12:14.052Z339.182° N38.831°2025-07-06 11:24:14.052Z52.441° ENE
22 mins2025-07-06 13:50:14.052Z304.596° NW2025-07-06 14:07:14.052Z19.75° NNE36.189°2025-07-06 14:12:14.052Z82.979° E
9 mins2025-07-06 16:48:14.052Z302.962° NW2025-07-06 16:55:14.052Z240.544° WSW26.437°2025-07-06 16:57:14.052Z200.213° SSW
|